Flag for Russia Weather past 2 weeks in Gelendzhik, Russia

Now
52 °F

Partly sunny.


Feels Like: 49 °F
Forecast: 42 / 54 °F
Wind: 8 mph from South

Location: Anapa / Vitiazevo

Current Time: Dec 18, 2014 at 10:32:19 AM

Latest Report: Dec 18, 2014 at 10:00 AM


Visibility: N/A

Pressure: 29.98 "Hg

Humidity: 88%

Dew point: 48 °F

Location of GelendzhikLocation

Historic Weather in Gelendzhik — Graph

°F

Gelendzhik temperature yesterday

Maximum temperature yesterday: 55 °F (at 11:30 AM)
Minimum temperature yesterday: 36 °F (at 12:30 AM)
Average temperature yesterday: 47 °F

Past Weeks' High & Low Weather Summary

 TemperatureHumidityPressure
High72 °F (Dec 9, 12:00 PM)100% (Dec 13, 3:00 AM)30.48 "Hg (Dec 13, 3:00 AM)
Low21 °F (Dec 3, 9:00 AM)29% (Dec 9, 2:00 PM)29.92 "Hg (Dec 9, 11:00 PM)
Average43 °F80%30.18 "Hg
* Reported Dec 3 9:00 AM — Dec 18 9:30 AM, Gelendzhik, Weather by CustomWeather, © 2014

Note: Actual official high and low records may vary slightly from our data, if they occured in-between our weather recording intervals... More about our weather records

Advertising

Gelendzhik weather history for previous 24 hours

 ConditionsComfort  
Time TempWeatherWind HumidityBarometerVisibility
9:30 AM
Dec 18
50 °FLight rain. More clouds than sun.8 mph88%29.98 "HgN/A
9:00 AM50 °FPassing clouds.8 mph88%29.98 "HgN/A
8:30 AM50 °FPassing clouds.8 mph88%29.98 "HgN/A
8:00 AM50 °FLight rain. Mostly cloudy.8 mph88%29.98 "HgN/A
7:30 AM50 °FClear.10 mph88%29.98 "Hg10 mi
6:30 AM50 °FPassing clouds.8 mph88%29.98 "HgN/A
6:00 AM50 °FPassing clouds.6 mph82%29.98 "HgN/A
5:00 AM46 °FPassing clouds.6 mph93%29.98 "HgN/A
4:00 AM46 °FPassing clouds.6 mph87%30.01 "HgN/A
3:00 AM48 °FClear.6 mph87%30.01 "Hg10 mi
2:00 AM50 °FPassing clouds.8 mph88%30.01 "HgN/A
1:00 AM52 °FPassing clouds.8 mph88%30.01 "HgN/A
12:00 AM52 °FPassing clouds.8 mph88%30.04 "HgN/A
11:00 PM
Dec 17
50 °FOvercast.6 mph88%30.01 "HgN/A
10:00 PM52 °FMostly cloudy.8 mph88%30.04 "HgN/A
9:00 PM52 °FMostly cloudy.10 mph88%30.07 "HgN/A
8:00 PM50 °FMostly cloudy.6 mph82%30.07 "HgN/A
7:30 PM48 °FMostly cloudy.1 mph87%30.07 "HgN/A
7:00 PM50 °FMostly cloudy.3 mph82%30.07 "HgN/A
6:30 PM52 °FMostly cloudy.3 mph88%30.07 "HgN/A
6:00 PM52 °FMostly cloudy.3 mph88%30.09 "HgN/A
5:30 PM52 °FMore clouds than sun.10 mph88%30.07 "HgN/A
5:00 PM52 °FMore clouds than sun.3 mph82%30.09 "HgN/A
4:30 PM54 °FMore clouds than sun.8 mph77%30.09 "HgN/A
4:00 PM54 °FMore clouds than sun.13 mph82%30.09 "HgN/A
3:30 PM54 °FMore clouds than sun.10 mph77%30.09 "HgN/A
3:00 PM54 °FMore clouds than sun.10 mph77%30.09 "HgN/A
2:30 PM54 °FMore clouds than sun.13 mph77%30.12 "HgN/A
2:00 PM54 °FMore clouds than sun.13 mph77%30.12 "HgN/A
1:30 PM54 °FMore clouds than sun.13 mph77%30.12 "HgN/A
1:00 PM54 °FMore clouds than sun.15 mph77%30.15 "HgN/A
12:30 PM54 °FBroken clouds.15 mph82%30.15 "HgN/A
12:00 PM54 °FBroken clouds.13 mph82%30.15 "HgN/A
11:30 AM55 °FPartly sunny.10 mph72%30.15 "HgN/A
11:00 AM54 °FPartly sunny.6 mph77%30.18 "HgN/A
10:30 AM54 °FBroken clouds.8 mph82%30.18 "HgN/A
10:00 AM50 °FBroken clouds.6 mph88%30.18 "HgN/A
Weather by CustomWeather, © 2014

See weather overviewHow to use our weather pages